This is the latest recevied weather packets stored in our database for station/object K4KMJ. If no packets are shown the sender has not sent any weather packets the latest 10 day(s).
| Time | Temp. | Humidity | Pressure | Rain* | Wind** | Luminosity | Snow |
|---|---|---|---|---|---|---|---|
| 1788612653 | 25° C | 99% | 1016.8 hPa | 0 mm | - | 113 W/m² | - |
| 1788612349 | 25° C | 99% | 1016.8 hPa | 0 mm | - | 103 W/m² | - |
| 1788612045 | 25° C | 99% | 1016.5 hPa | 0 mm | - | 97 W/m² | - |
| 1788611740 | 25° C | 99% | 1016.7 hPa | 0 mm | - | 99 W/m² | - |
| 1788611437 | 25° C | 99% | 1016.6 hPa | 0 mm | - | 87 W/m² | - |
| 1788611136 | 25° C | 99% | 1016.7 hPa | 0 mm | - | 86 W/m² | - |
| 1788610832 | 24.44° C | 99% | 1016.6 hPa | 0 mm | - | 82 W/m² | - |
| 1788610532 | 23.89° C | 99% | 1016.9 hPa | 0 mm | - | 57 W/m² | - |
| 1788610227 | 23.89° C | 99% | 1016.8 hPa | 0 mm | - | 51 W/m² | - |
| 1788609920 | 23.89° C | 99% | 1016.7 hPa | 0 mm | - | 43 W/m² | - |
| 1788609617 | 23.89° C | 99% | 1016.7 hPa | 0 mm | - | 39 W/m² | - |
| 1788609334 | 23.89° C | 99% | 1016.7 hPa | 0 mm | - | 29 W/m² | - |
| 1788609010 | 23.89° C | 99% | 1016.4 hPa | 0 mm | - | 23 W/m² | - |
| 1788608709 | 23.89° C | 99% | 1016.3 hPa | 0 mm | - | 17 W/m² | - |
| 1788608409 | 23.89° C | 99% | 1016.4 hPa | 0 mm | - | 14 W/m² | - |
| 1788608104 | 23.89° C | 99% | 1016.3 hPa | 0 mm | - | 11 W/m² | - |
| 1788607799 | 23.89° C | 99% | 1016.1 hPa | 0 mm | - | 9 W/m² | - |
| 1788607494 | 23.89° C | 99% | 1016.1 hPa | 0 mm | - | 8 W/m² | - |
| 1788607189 | 23.89° C | 99% | 1016.1 hPa | 0 mm | - | 6 W/m² | - |
| 1788606884 | 23.89° C | 99% | 1016.1 hPa | 0 mm | - | 4 W/m² | - |
| 1788606578 | 23.89° C | 99% | 1016.1 hPa | 0 mm | - | 3 W/m² | - |
| 1788606277 | 23.89° C | 99% | 1015.9 hPa | 0 mm | - | 2 W/m² | - |
| 1788605977 | 23.89° C | 99% | 1015.8 hPa | 0 mm | - | 1 W/m² | - |
| 1788605672 | 23.89° C | 99% | 1015.7 hPa | 0 mm | - | 0 W/m² | - |
| 1788605365 | 23.89° C | 99% | 1015.7 hPa | 0 mm | - | 0 W/m² | - |
* Rain latest hour (hover to see other rain measurements)
** Current wind speed in m/s (hover to see current wind gust speed)